GW1211 Weather Reports


time (UTC)temp
F
wind
direction
speed
knots
gust
knots
rain 1hr
in
rain 24hr
in
rain mn
in
humidity
%
barometer
mb
20260507015259 55 271 3.5 7.8 0.00 0.00 0.00 83 1022.8
20260507014756 55 292 3.5 5.2 0.00 0.00 0.00 83 1022.8
20260507014253 55 304 4.3 5.2 0.00 0.00 0.00 82 1022.9
20260507013749 54 309 3.5 5.2 0.00 0.00 0.00 83 1022.8
20260507013247 55 302 3.5 6.1 0.00 0.00 0.00 83 1022.9
20260507012744 55 296 4.3 6.1 0.00 0.00 0.00 83 1023.1
20260507012244 54 303 7.8 8.7 0.00 0.00 0.00 84 1023.0
20260507011743 55 295 5.2 7.0 0.00 0.00 0.00 84 1022.8
20260507011239 55 293 7.8 7.8 0.00 0.00 0.00 84 1022.9
20260507010738 55 292 7.0 7.8 0.00 0.00 0.00 85 1022.7
20260507010235 55 291 7.0 7.8 0.00 0.00 0.00 85 1022.8
20260507005732 55 292 5.2 7.8 0.00 0.00 0.00 86 1022.8
20260507005228 55 295 5.2 7.8 0.00 0.00 0.00 86 1022.9
20260507004725 55 292 4.3 6.1 0.00 0.00 0.00 86 1022.9
20260507004223 55 288 6.1 7.8 0.00 0.00 0.00 86 1023.0
20260507003719 55 299 7.8 9.6 0.00 0.00 0.00 86 1023.0
20260507003214 55 305 4.3 6.1 0.00 0.00 0.00 87 1022.7
20260507002710 55 304 5.2 7.0 0.00 0.00 0.00 87 1022.9
20260507002206 55 294 5.2 6.1 0.00 0.00 0.00 87 1022.8
20260507001703 55 300 7.8 8.7 0.00 0.00 0.00 86 1022.8
20260507001201 55 305 7.0 7.8 0.00 0.00 0.00 87 1022.9
20260507000657 55 292 7.8 8.7 0.00 0.00 0.00 87 1022.7
20260507000152 55 296 7.0 9.6 0.00 0.00 0.00 87 1022.9
20260506235650 55 294 7.8 9.6 0.00 0.00 0.00 87 1022.8
20260506235145 55 307 7.8 8.7 0.00 0.00 0.00 88 1023.0
20260506234642 55 299 9.6 11.3 0.00 0.00 0.00 88 1023.1
20260506234139 55 289 5.2 6.1 0.00 0.00 0.00 88 1023.0
20260506233636 54 291 7.0 8.7 0.00 0.00 0.00 88 1022.8
20260506233133 54 284 5.2 7.0 0.00 0.00 0.00 88 1023.0
20260506232629 54 265 3.5 5.2 0.00 0.00 0.00 88 1023.1
20260506232125 54 261 5.2 6.1 0.00 0.00 0.00 88 1023.2
20260506231622 54 265 6.1 7.0 0.00 0.00 0.00 88 1023.3
20260506231121 54 275 4.3 5.2 0.00 0.00 0.00 88 1023.4
20260506230617 55 245 7.0 7.8 0.00 0.00 0.00 89 1023.3
20260506230114 55 265 4.3 5.2 0.00 0.00 0.00 89 1023.4
20260506225611 54 278 5.2 6.1 0.00 0.00 0.00 89 1023.3
20260506225107 55 259 7.8 7.8 0.00 0.00 0.00 88 1023.1
20260506224604 54 251 4.3 6.1 0.00 0.00 0.00 89 1023.4
20260506224101 54 269 4.3 6.1 0.00 0.00 0.00 89 1023.5
20260506223556 54 261 6.1 7.8 0.00 0.00 0.00 89 1023.3
20260506223053 54 255 5.2 6.1 0.00 0.00 0.00 89 1023.3
20260506222550 54 259 3.5 3.5 0.00 0.00 0.00 89 1023.3
20260506222046 54 254 5.2 7.0 0.00 0.00 0.00 88 1023.5
20260506221544 54 259 7.0 8.7 0.00 0.00 0.00 88 1023.4
20260506221042 54 267 7.0 7.0 0.00 0.00 0.00 88 1023.5
20260506220537 54 242 7.0 7.8 0.00 0.00 0.00 87 1023.3
20260506220033 54 248 6.1 7.0 0.00 0.00 0.00 87 1023.4
20260506215531 54 248 7.8 7.8 0.00 0.00 0.00 87 1023.4
20260506215026 54 246 5.2 7.0 0.00 0.00 0.00 87 1023.3
20260506214523 54 265 5.2 7.0 0.00 0.00 0.00 87 1023.4
20260506214020 55 258 5.2 7.0 0.00 0.00 0.00 86 1023.3
20260506213519 55 275 6.1 7.0 0.00 0.00 0.00 86 1023.2
20260506213015 55 256 4.3 6.1 0.00 0.00 0.00 86 1023.3
20260506212512 55 258 3.5 5.2 0.00 0.00 0.00 85 1023.3
20260506212007 55 262 6.1 7.0 0.00 0.00 0.00 86 1023.3
20260506211503 55 270 6.1 7.0 0.00 0.00 0.00 85 1023.4
20260506211000 55 274 7.0 7.8 0.00 0.00 0.00 85 1023.2
20260506210456 55 245 7.0 7.8 0.00 0.00 0.00 86 1023.4
20260506205954 55 282 6.1 7.0 0.00 0.00 0.00 86 1023.2
20260506205450 55 269 6.1 7.0 0.00 0.00 0.00 86 1023.3
20260506204946 56 266 6.1 7.8 0.00 0.00 0.00 85 1023.1
20260506204444 56 274 6.1 7.0 0.00 0.00 0.00 86 1023.3
20260506203941 56 258 3.5 5.2 0.00 0.00 0.00 86 1023.3
20260506203438 55 280 3.5 5.2 0.00 0.00 0.00 87 1023.2
20260506202935 55 274 5.2 7.0 0.00 0.00 0.00 87 1023.2
20260506202432 55 269 6.1 7.0 0.00 0.00 0.00 87 1023.2
20260506201928 55 258 6.1 7.0 0.00 0.00 0.00 87 1023.1
20260506201426 55 253 5.2 6.1 0.00 0.00 0.00 88 1023.0
20260506200922 54 237 4.3 5.2 0.00 0.00 0.00 88 1023.0
20260506200419 55 249 6.1 7.0 0.00 0.00 0.00 88 1023.2
20260506195915 55 239 4.3 6.1 0.00 0.00 0.00 89 1023.1
20260506195413 54 281 5.2 6.1 0.00 0.00 0.00 89 1023.1
20260506194909 54 280 5.2 6.1 0.00 0.00 0.00 88 1023.0
20260506194406 54 244 1.7 2.6 0.00 0.00 0.00 89 1022.9
20260506193903 53 242 3.5 6.1 0.00 0.00 0.00 89 1023.2
20260506193400 53 230 3.5 3.5 0.00 0.00 0.00 90 1022.9
20260506192856 53 266 1.7 1.7 0.00 0.00 0.00 90 1022.9
20260506192353 53 266 2.6 2.6 0.00 0.00 0.00 89 1023.0
20260506191850 53 253 4.3 6.1 0.00 0.00 0.00 90 1022.8
20260506191347 52 252 5.2 7.0 0.00 0.00 0.00 90 1022.9
20260506190844 52 280 3.5 5.2 0.00 0.00 0.00 89 1022.9
20260506190340 53 276 6.1 7.0 0.00 0.00 0.00 89 1022.5
20260506185837 53 282 4.3 6.1 0.00 0.00 0.00 89 1022.7
20260506185334 53 277 6.1 7.8 0.00 0.00 0.00 89 1022.7
20260506184831 53 268 3.5 5.2 0.00 0.00 0.00 89 1022.6
20260506184328 53 242 3.5 5.2 0.00 0.00 0.00 89 1022.4
20260506183826 53 249 1.7 2.6 0.00 0.00 0.00 89 1022.4
20260506183320 53 248 3.5 5.2 0.00 0.00 0.00 89 1022.4
20260506182818 53 253 3.5 5.2 0.00 0.00 0.00 88 1022.6
20260506182315 53 272 2.6 2.6 0.00 0.00 0.00 88 1022.4
20260506181813 53 262 3.5 3.5 0.00 0.00 0.00 88 1022.4
20260506181310 53 270 2.6 2.6 0.00 0.00 0.00 88 1022.5
20260506180808 53 284 0.0 0.0 0.00 0.00 0.00 88 1022.6
20260506180303 53 259 0.0 0.9 0.00 0.00 0.00 87 1022.5
20260506175800 53 260 4.3 6.1 0.00 0.00 0.00 87 1022.6
20260506175257 53 270 5.2 7.0 0.00 0.00 0.00 87 1022.6
20260506174754 53 277 4.3 6.1 0.00 0.00 0.00 86 1022.5
20260506174251 53 263 4.3 7.0 0.00 0.00 0.00 86 1022.5
20260506173749 53 239 4.3 7.0 0.00 0.00 0.00 85 1022.5
20260506173245 53 269 5.2 6.1 0.00 0.00 0.00 85 1022.3
20260506172742 53 248 3.5 5.2 0.00 0.00 0.00 85 1022.4
20260506172239 53 258 2.6 2.6 0.00 0.00 0.00 85 1022.2
20260506171737 53 252 4.3 5.2 0.00 0.00 0.00 84 1022.2
20260506171233 53 275 3.5 6.1 0.00 0.00 0.00 84 1022.1
20260506170731 53 248 4.3 6.1 0.00 0.00 0.00 83 1022.2
20260506170227 54 267 4.3 7.0 0.00 0.00 0.00 83 1022.3
20260506165726 54 281 3.5 5.2 0.00 0.00 0.00 82 1022.2
20260506165222 53 247 2.6 2.6 0.00 0.00 0.00 82 1022.1
20260506164720 54 235 3.5 3.5 0.00 0.00 0.00 82 1021.9
20260506164217 53 249 0.0 0.0 0.00 0.00 0.00 82 1021.9
20260506163713 53 238 0.0 0.0 0.00 0.00 0.00 82 1021.9
20260506163208 53 254 1.7 2.6 0.00 0.00 0.00 82 1021.8
20260506162705 53 246 2.6 3.5 0.00 0.00 0.00 82 1021.9
20260506162202 53 258 3.5 3.5 0.00 0.00 0.00 82 1022.0
20260506161659 53 283 0.0 0.0 0.00 0.00 0.00 82 1022.0
20260506161156 53 275 1.7 2.6 0.00 0.00 0.00 82 1021.9
20260506160654 53 283 2.6 3.5 0.00 0.00 0.00 82 1021.7
20260506160150 53 294 1.7 2.6 0.00 0.00 0.00 82 1022.0
20260506155649 53 283 2.6 3.5 0.00 0.00 0.00 82 1021.9
20260506155146 53 303 4.3 5.2 0.00 0.00 0.00 82 1021.7
20260506153248 53 282 2.6 3.5 0.00 0.00 0.00 82 1021.6
20260506152744 53 280 3.5 5.2 0.00 0.00 0.00 82 1021.7
20260506152242 53 269 3.5 5.2 0.00 0.00 0.00 82 1021.6
20260506151741 53 235 0.0 0.0 0.00 0.00 0.00 82 1021.7
20260506151237 53 251 3.5 3.5 0.00 0.00 0.00 82 1021.4
20260506150733 53 269 1.7 2.6 0.00 0.00 0.00 82 1021.5
20260506150231 53 255 0.0 0.0 0.00 0.00 0.00 82 1021.4
20260506145728 53 271 0.0 0.0 0.00 0.00 0.00 82 1021.3
20260506145224 53 259 0.0 0.0 0.00 0.00 0.00 82 1021.3
20260506144722 53 257 0.0 0.0 0.00 0.00 0.00 82 1021.2
20260506144219 53 248 0.0 0.0 0.00 0.00 0.00 82 1021.2
20260506143716 53 240 3.5 5.2 0.00 0.00 0.00 82 1021.2
20260506143214 53 240 2.6 5.2 0.00 0.00 0.00 82 1021.0
20260506142712 53 239 0.0 0.0 0.00 0.00 0.00 82 1021.0
20260506142210 53 248 2.6 2.6 0.00 0.00 0.00 83 1021.0
20260506141707 53 260 0.0 0.0 0.00 0.00 0.00 82 1021.3
20260506141205 53 258 0.9 1.7 0.00 0.00 0.00 82 1020.9
20260506140703 53 241 0.0 0.0 0.00 0.00 0.00 82 1021.1
20260506140159 53 263 1.7 2.6 0.00 0.00 0.00 82 1021.0
20260506135656 53 273 0.0 0.0 0.00 0.00 0.00 83 1021.0
20260506135153 53 307 0.0 0.0 0.00 0.00 0.00 83 1020.9
20260506134649 53 311 0.0 0.0 0.00 0.00 0.00 83 1020.6
20260506134145 53 267 0.0 0.0 0.00 0.00 0.00 83 1020.5
20260506133643 53 278 0.0 0.0 0.00 0.00 0.00 83 1020.5
20260506133139 53 262 0.0 0.0 0.00 0.00 0.00 83 1020.6
20260506132637 53 258 0.0 0.0 0.00 0.00 0.00 83 1020.7
20260506132133 53 266 0.0 0.0 0.00 0.00 0.00 83 1020.5
20260506131631 52 214 0.0 0.0 0.00 0.00 0.00 83 1020.6
20260506131127 52 188 0.0 0.0 0.00 0.00 0.00 84 1020.2
20260506105130 53 288 0.0 0.0 0.00 0.00 0.00 84 1020.0
20260506104628 53 288 0.0 0.0 0.00 0.00 0.00 84 1020.0
20260506104125 53 288 0.0 0.0 0.00 0.00 0.00 84 1020.0
20260506103623 53 291 0.0 0.0 0.00 0.00 0.00 84 1019.8
20260506103119 53 286 0.0 0.0 0.00 0.00 0.00 84 1019.9
20260506102618 53 294 0.0 0.0 0.00 0.00 0.00 84 1019.8
20260506102115 53 305 0.0 0.0 0.00 0.00 0.00 84 1019.8
20260506101611 53 273 0.0 0.0 0.00 0.00 0.00 84 1019.7
20260506095649 53 265 0.0 0.0 0.00 0.00 0.00 84 1019.8
20260506095145 53 265 0.0 0.0 0.00 0.00 0.00 84 1019.8
20260506094643 53 273 0.0 0.0 0.00 0.00 0.00 84 1019.9
20260506094141 53 261 0.0 0.0 0.00 0.00 0.00 84 1019.7
20260506093639 53 283 0.0 0.0 0.00 0.00 0.00 84 1020.0
20260506093136 53 321 0.0 0.0 0.00 0.00 0.00 84 1019.8
20260506092634 53 296 0.0 0.0 0.00 0.00 0.00 84 1019.8
20260506092131 53 283 0.0 0.0 0.00 0.00 0.00 84 1019.7
20260506091629 53 323 0.0 0.0 0.00 0.00 0.00 84 1019.7
20260506091126 53 295 0.0 0.0 0.00 0.00 0.00 84 1019.7
20260506090624 53 309 0.0 0.0 0.00 0.00 0.00 84 1019.7
20260506090120 53 270 0.0 0.0 0.00 0.00 0.00 84 1019.6
20260506085617 53 258 0.0 0.0 0.00 0.00 0.00 84 1019.6
20260506085113 53 248 0.0 0.0 0.00 0.00 0.00 84 1019.6
20260506084610 53 260 0.0 0.0 0.00 0.00 0.00 84 1019.5
20260506084106 53 290 0.0 0.0 0.00 0.00 0.00 84 1019.4
20260506083604 53 287 0.0 0.0 0.00 0.00 0.00 84 1019.6
20260506083101 53 305 0.0 0.0 0.00 0.00 0.00 84 1019.4
20260506082558 53 305 0.0 0.0 0.00 0.00 0.00 84 1019.4
20260506082053 53 283 0.0 0.0 0.00 0.00 0.00 84 1019.4
20260506081552 53 307 0.0 0.0 0.00 0.00 0.00 84 1019.4
20260506081049 53 301 0.9 1.7 0.00 0.00 0.00 84 1019.3
20260506080546 53 310 0.0 0.0 0.00 0.00 0.00 84 1019.3
20260506073027 53 293 0.0 0.0 0.00 0.00 0.00 84 1019.1
20260506072524 53 296 0.0 0.0 0.00 0.00 0.00 84 1019.0
20260506072022 53 299 0.0 0.0 0.00 0.00 0.00 84 1018.9
20260506071519 53 270 0.0 0.0 0.00 0.00 0.00 84 1018.9
20260506071016 53 293 0.0 0.0 0.00 0.00 0.00 84 1018.8
20260506070514 53 274 0.0 0.0 0.00 0.00 0.00 84 1018.9
20260506062451 54 284 2.6 2.6 0.00 0.00 0.00 84 1018.8
20260506061947 53 304 0.0 0.0 0.00 0.00 0.00 84 1018.8
20260506061443 53 307 3.5 5.2 0.00 0.00 0.00 84 1018.8
20260506060942 53 326 0.0 1.7 0.00 0.00 0.00 84 1018.8
20260506060440 54 293 3.5 3.5 0.00 0.00 0.00 84 1018.8
20260506051412 55 293 4.3 5.2 0.00 0.00 0.00 83 1018.8
20260506050908 54 303 3.5 5.2 0.00 0.00 0.00 83 1018.7
20260506050406 55 300 4.3 5.2 0.00 0.00 0.00 83 1018.7
20260506044856 55 275 0.0 0.0 0.00 0.00 0.00 83 1018.8
20260506044354 55 278 3.5 3.5 0.00 0.00 0.00 83 1018.5
20260506043851 55 287 2.6 3.5 0.00 0.00 0.00 83 1018.6
20260506043348 55 273 3.5 3.5 0.00 0.00 0.00 83 1018.6
20260506042846 55 280 2.6 3.5 0.00 0.00 0.00 83 1018.6
20260506042345 55 268 1.7 1.7 0.00 0.00 0.00 83 1018.5
20260506041844 55 283 1.7 2.6 0.00 0.00 0.00 83 1018.4
20260506041340 55 267 0.0 0.0 0.00 0.00 0.00 83 1018.3
20260506040837 55 280 0.0 0.0 0.00 0.00 0.00 83 1018.2
20260506040335 54 301 0.0 0.0 0.00 0.00 0.00 83 1018.3
20260506035831 55 283 3.5 5.2 0.00 0.00 0.00 82 1017.9
20260506035328 55 273 1.7 1.7 0.00 0.00 0.00 82 1018.0
20260506034825 55 266 3.5 3.5 0.00 0.00 0.00 82 1017.8
20260506034323 55 280 0.0 0.0 0.00 0.00 0.00 82 1018.0
20260506033819 55 282 1.7 2.6 0.00 0.00 0.00 83 1018.0
20260506033316 55 273 0.0 0.0 0.00 0.00 0.00 83 1017.7
20260506032813 55 294 0.0 0.0 0.00 0.00 0.00 82 1017.8
20260506032310 55 274 0.0 0.0 0.00 0.00 0.00 83 1018.0
20260506031807 55 290 0.0 0.0 0.00 0.00 0.00 83 1018.0
20260506031304 55 265 0.0 0.0 0.00 0.00 0.00 83 1018.1
20260506030802 55 295 0.0 0.0 0.00 0.00 0.00 83 1017.9
20260506030300 55 291 0.0 0.0 0.00 0.00 0.00 83 1017.8
20260506025756 55 283 0.0 0.0 0.00 0.00 0.00 83 1017.8
20260506025253 55 297 0.0 0.0 0.00 0.00 0.00 83 1017.9
20260506024750 55 272 0.0 0.0 0.00 0.00 0.00 83 1017.8
20260506024246 55 292 0.0 0.0 0.00 0.00 0.00 83 1017.6
20260506023742 55 281 0.0 0.0 0.00 0.00 0.00 83 1017.7
20260506023240 55 285 0.0 0.0 0.00 0.00 0.00 83 1017.8
20260506022736 55 293 0.0 0.0 0.00 0.00 0.00 83 1017.6
20260506022235 56 308 0.0 0.0 0.00 0.00 0.00 83 1017.8
20260506021732 55 305 0.0 0.0 0.00 0.00 0.00 83 1017.7
20260506021229 56 300 0.0 0.0 0.00 0.00 0.00 83 1017.7
20260506020725 56 293 0.0 0.0 0.00 0.00 0.00 83 1017.7
20260506020224 56 292 0.0 0.0 0.00 0.00 0.00 83 1017.8
20260506015721 56 297 0.0 0.0 0.00 0.00 0.00 83 1017.6